User: anonymous   Login
Location: Unspecified
(0.0000°N, 0.0000°E)
Time: 09:13:55
(UTC+01:00)
Language:

SJ-6B - Orbit

View from above orbital plane
View from above orbital plane
View from above satellite
View from above satellite

Ground track
Ground track

The orbit data is extracted from the following two-line orbital elements,

1 28415U 04035C   14330.03699558  .00004751  00000-0  34443-3 0  3529
2 28415 097.8001 335.7245 0056810 045.5805 315.0049 15.03132873558051
Epoch (UTC): 26 November 2014 00:53:16
Eccentricity: 0.0056810
inclination: 97.8001°
perigee height: 518 km
apogee height: 596 km
right ascension of ascending node: 335.7245°
argument of perigee: 45.5805°
revolutions per day: 15.03132873
mean anomaly at epoch: 315.0049°
orbit number at epoch: 55805

The dashed part of the orbit path shows where the satellite is in the earth's shadow,  

DLR